INTELSAT 4A-F1 1 08330U 75091A 21061.45717806 .00000078 00000-0 00000-0 0 9999 2 08330 11.8701 321.1904 0002676 150.8458 50.8538 0.99933248102151 ATLAS CENTAUR R/B 1 08331U 75091B 21059.31738535 -.00000204 00000-0 -40096-3 0 9999 2 08331 21.8183 125.5897 7204402 37.9962 355.4923 2.21895923365828